GW6245 Weather Reports


time (UTC)temp
C
wind
direction
speed
KPH
gust
KPH
rain 1hr
cm
rain 24hr
cm
rain mn
cm
humidity
%
barometer
mb
20260505002031 21 104 0.0 1.6 0.00 0.00 0.00 40 998.0
20260505001528 21 171 3.2 3.2 0.00 0.00 0.00 39 997.8
20260505001025 22 122 1.6 1.6 0.00 0.00 0.00 39 997.9
20260505000523 22 111 1.6 1.6 0.00 0.00 0.00 38 997.8
20260505000020 22 112 0.0 0.0 0.00 0.00 0.00 38 997.6
20260504235517 22 125 0.0 1.6 0.00 0.00 0.00 37 997.7
20260504235013 22 120 1.6 3.2 0.00 0.00 0.00 36 997.7
20260504234510 22 110 1.6 1.6 0.00 0.00 0.00 36 997.5
20260504234007 23 165 1.6 3.2 0.00 0.00 0.00 35 997.4
20260504233502 23 105 0.0 0.0 0.00 0.00 0.00 35 997.4
20260504233000 23 109 1.6 1.6 0.00 0.00 0.00 34 997.4
20260504232457 23 122 3.2 3.2 0.00 0.00 0.00 34 997.4
20260504231954 23 145 1.6 3.2 0.00 0.00 0.00 33 997.3
20260504231450 24 145 1.6 3.2 0.00 0.00 0.00 33 997.3
20260504230947 24 99 0.0 0.0 0.00 0.00 0.00 33 997.2
20260504230443 24 184 1.6 3.2 0.00 0.00 0.00 32 997.4
20260504225943 24 137 4.8 4.8 0.00 0.00 0.00 32 997.5
20260504225439 25 106 3.2 3.2 0.00 0.00 0.00 33 997.3
20260504224936 25 199 3.2 4.8 0.00 0.00 0.00 33 997.2
20260504224432 25 104 0.0 1.6 0.00 0.00 0.00 32 997.3
20260504223930 25 106 3.2 4.8 0.00 0.00 0.00 32 997.2
20260504223425 25 291 8.0 12.9 0.00 0.00 0.00 30 997.4
20260504222921 26 219 4.8 8.0 0.00 0.00 0.00 30 997.3
20260504222419 26 204 3.2 4.8 0.00 0.00 0.00 29 997.2
20260504221917 26 143 3.2 3.2 0.00 0.00 0.00 31 997.4
20260504221413 26 71 1.6 1.6 0.00 0.00 0.00 31 997.3
20260504220910 26 73 1.6 1.6 0.00 0.00 0.00 30 997.3
20260504220407 26 98 1.6 1.6 0.00 0.00 0.00 30 997.5
20260504215904 26 95 1.6 1.6 0.00 0.00 0.00 29 997.5
20260504215401 26 126 1.6 1.6 0.00 0.00 0.00 31 997.4
20260504214857 26 133 3.2 3.2 0.00 0.00 0.00 29 997.7
20260504214354 26 194 3.2 4.8 0.00 0.00 0.00 30 997.5
20260504213851 26 107 1.6 3.2 0.00 0.00 0.00 29 997.6
20260504213346 26 120 1.6 3.2 0.00 0.00 0.00 30 997.7
20260504212844 26 175 6.4 11.3 0.00 0.00 0.00 30 997.6
20260504212340 26 112 1.6 3.2 0.00 0.00 0.00 30 997.5
20260504211838 26 46 3.2 3.2 0.00 0.00 0.00 30 997.5
20260504211333 26 107 4.8 4.8 0.00 0.00 0.00 32 997.2
20260504210831 26 103 4.8 4.8 0.00 0.00 0.00 31 997.4
20260504210328 26 150 1.6 4.8 0.00 0.00 0.00 31 997.6
20260504205825 26 247 9.7 12.9 0.00 0.00 0.00 31 997.6
20260504205323 26 124 3.2 4.8 0.00 0.00 0.00 30 997.8
20260504204821 26 258 19.3 25.7 0.00 0.00 0.00 30 997.7
20260504204319 26 96 4.8 4.8 0.00 0.00 0.00 30 997.8
20260504203818 25 182 4.8 4.8 0.00 0.00 0.00 32 998.0
20260504203315 26 194 6.4 9.7 0.00 0.00 0.00 32 997.8
20260504202810 26 211 3.2 3.2 0.00 0.00 0.00 30 998.0
20260504202308 26 112 6.4 12.9 0.00 0.00 0.00 30 998.1
20260504201804 26 122 3.2 4.8 0.00 0.00 0.00 32 998.0
20260504201302 26 231 4.8 4.8 0.00 0.00 0.00 31 997.9
20260504200759 26 125 1.6 1.6 0.00 0.00 0.00 32 998.1
20260504200255 26 112 1.6 1.6 0.00 0.00 0.00 32 998.1
20260504195752 26 203 4.8 4.8 0.00 0.00 0.00 31 998.3
20260504195248 26 108 1.6 1.6 0.00 0.00 0.00 32 998.3
20260504194745 26 109 3.2 4.8 0.00 0.00 0.00 32 998.1
20260504194241 26 86 3.2 4.8 0.00 0.00 0.00 31 998.2
20260504193737 26 85 1.6 1.6 0.00 0.00 0.00 34 998.3
20260504193235 26 99 1.6 1.6 0.00 0.00 0.00 32 998.3
20260504192733 26 48 3.2 4.8 0.00 0.00 0.00 33 998.5
20260504192231 26 221 6.4 9.7 0.00 0.00 0.00 32 998.5
20260504191729 26 97 0.0 0.0 0.00 0.00 0.00 32 998.5
20260504191226 26 110 0.0 1.6 0.00 0.00 0.00 32 998.6
20260504190721 25 158 3.2 8.0 0.00 0.00 0.00 34 998.7
20260504190218 25 23 1.6 3.2 0.00 0.00 0.00 33 998.6
20260504185714 25 331 3.2 3.2 0.00 0.00 0.00 33 998.6
20260504185211 25 108 3.2 4.8 0.00 0.00 0.00 34 998.9
20260504184707 25 153 3.2 3.2 0.00 0.00 0.00 34 998.7
20260504184203 25 97 3.2 3.2 0.00 0.00 0.00 34 998.9
20260504183659 25 228 4.8 9.7 0.00 0.00 0.00 35 999.0
20260504183156 25 107 0.0 1.6 0.00 0.00 0.00 34 999.0
20260504182654 25 119 3.2 3.2 0.00 0.00 0.00 33 999.0
20260504182151 25 89 4.8 8.0 0.00 0.00 0.00 36 999.2
20260504181649 25 77 1.6 3.2 0.00 0.00 0.00 34 999.0
20260504181146 25 42 3.2 4.8 0.00 0.00 0.00 33 999.2
20260504180645 25 36 9.7 14.5 0.00 0.00 0.00 33 999.0
20260504180143 26 185 4.8 9.7 0.00 0.00 0.00 32 999.0
20260504175640 26 101 3.2 3.2 0.00 0.00 0.00 33 999.2
20260504175137 25 252 8.0 9.7 0.00 0.00 0.00 32 999.1
20260504174636 23 56 1.6 1.6 0.00 0.00 0.00 34 999.4
20260504174131 24 125 11.3 14.5 0.00 0.00 0.00 35 999.5
20260504173629 24 134 4.8 4.8 0.00 0.00 0.00 36 999.6
20260504173126 25 98 1.6 3.2 0.00 0.00 0.00 34 999.4
20260504172622 23 88 4.8 4.8 0.00 0.00 0.00 35 999.4
20260504172119 24 231 16.1 16.1 0.00 0.00 0.00 33 999.5
20260504171616 23 141 3.2 3.2 0.00 0.00 0.00 36 999.5
20260504171113 24 122 6.4 8.0 0.00 0.00 0.00 34 999.6
20260504170609 25 202 6.4 9.7 0.00 0.00 0.00 34 999.8
20260504170107 23 108 3.2 4.8 0.00 0.00 0.00 37 999.8
20260504150952 21 135 8.0 9.7 0.00 0.00 0.00 46 1001.1
20260504150449 21 87 1.6 3.2 0.00 0.00 0.00 43 1001.0
20260504140916 18 105 3.2 3.2 0.00 0.00 0.00 58 1000.9
20260504140412 18 126 6.4 9.7 0.00 0.00 0.00 59 1001.1
20260504130337 15 134 1.6 1.6 0.00 0.00 0.00 69 1001.3
20260504120300 12 90 1.6 1.6 0.00 0.00 0.00 77 1000.8
20260504110224 7 87 0.0 0.0 0.00 0.00 0.00 89 1000.9
20260504100148 6 90 0.0 0.0 0.00 0.00 0.00 91 1001.0
20260504090110 8 88 0.0 0.0 0.00 0.00 0.00 89 1000.5
20260504081541 9 89 0.0 0.0 0.00 0.00 0.00 84 1000.3
20260504081036 8 77 1.6 3.2 0.00 0.00 0.00 84 1000.4
20260504080533 9 81 0.0 0.0 0.00 0.00 0.00 84 1000.2
20260504050346 10 92 0.0 0.0 0.00 0.00 0.00 79 1000.7
20260504045843 10 92 0.0 0.0 0.00 0.00 0.00 80 1000.8
20260504045338 10 93 0.0 0.0 0.00 0.00 0.00 79 1000.8
20260504044835 10 97 0.0 0.0 0.00 0.00 0.00 78 1000.7
20260504044332 10 97 0.0 0.0 0.00 0.00 0.00 77 1000.8
20260504043830 11 97 0.0 0.0 0.00 0.00 0.00 74 1000.8
20260504043326 11 97 0.0 0.0 0.00 0.00 0.00 73 1000.7
20260504042824 11 97 0.0 0.0 0.00 0.00 0.00 73 1000.9
20260504042320 11 97 0.0 0.0 0.00 0.00 0.00 74 1001.0
20260504041816 11 97 0.0 0.0 0.00 0.00 0.00 73 1001.0
20260504041313 11 97 0.0 0.0 0.00 0.00 0.00 75 1001.0
20260504040809 10 97 0.0 0.0 0.00 0.00 0.00 75 1001.0
20260504040307 10 97 0.0 0.0 0.00 0.00 0.00 77 1001.0
20260504035802 10 97 0.0 0.0 0.00 0.00 0.00 75 1001.0
20260504035300 10 97 0.0 0.0 0.00 0.00 0.00 74 1001.1
20260504034757 11 97 0.0 0.0 0.00 0.00 0.00 74 1001.2
20260504034254 11 97 0.0 0.0 0.00 0.00 0.00 74 1001.0
20260504033751 11 97 0.0 0.0 0.00 0.00 0.00 73 1001.2
20260504033249 11 97 0.0 0.0 0.00 0.00 0.00 75 1001.1
20260504032746 11 97 0.0 0.0 0.00 0.00 0.00 72 1001.2
20260504032243 12 97 0.0 0.0 0.00 0.00 0.00 71 1001.1
20260504031739 11 98 0.0 0.0 0.00 0.00 0.00 73 1001.1
20260504031237 11 98 0.0 0.0 0.00 0.00 0.00 74 1001.0
20260504030732 11 98 0.0 0.0 0.00 0.00 0.00 70 1001.2
20260504030230 11 98 0.0 0.0 0.00 0.00 0.00 69 1001.0
20260504025726 11 98 0.0 0.0 0.00 0.00 0.00 69 1001.0
20260504025223 11 98 0.0 0.0 0.00 0.00 0.00 70 1001.1
20260504024720 12 98 0.0 0.0 0.00 0.00 0.00 69 1000.8
20260504024217 12 98 0.0 0.0 0.00 0.00 0.00 64 1000.9
20260504023714 12 98 0.0 0.0 0.00 0.00 0.00 66 1000.7
20260504023209 12 98 0.0 0.0 0.00 0.00 0.00 66 1000.7
20260504022706 12 98 0.0 0.0 0.00 0.00 0.00 67 1000.6
20260504022202 12 98 0.0 0.0 0.00 0.00 0.00 64 1000.6
20260504021700 12 98 0.0 0.0 0.00 0.00 0.00 63 1000.5
20260504021156 12 98 0.0 0.0 0.00 0.00 0.00 63 1000.3
20260504020653 12 98 0.0 0.0 0.00 0.00 0.00 61 1000.5
20260504020149 13 98 0.0 0.0 0.00 0.00 0.00 59 1000.4
20260504015646 13 98 0.0 0.0 0.00 0.00 0.00 60 1000.6
20260504015143 13 98 0.0 0.0 0.00 0.00 0.00 59 1000.4
20260504014638 14 98 0.0 0.0 0.00 0.00 0.00 59 1000.2
20260504014136 13 98 0.0 0.0 0.00 0.00 0.00 59 1000.4
20260504013633 13 98 0.0 0.0 0.00 0.00 0.00 64 1000.1
20260504013130 13 98 0.0 0.0 0.00 0.00 0.00 60 1000.3
20260504012627 13 98 0.0 0.0 0.00 0.00 0.00 57 1000.3
20260504012125 14 98 0.0 0.0 0.00 0.00 0.00 60 1000.2
20260504011622 14 98 0.0 0.0 0.00 0.00 0.00 57 1000.2
20260504011118 15 98 0.0 0.0 0.00 0.00 0.00 54 999.9
20260504010614 15 98 0.0 0.0 0.00 0.00 0.00 54 999.9
20260504010110 15 98 0.0 0.0 0.00 0.00 0.00 54 999.7
20260504005607 14 98 0.0 0.0 0.00 0.00 0.00 55 1000.0
20260504005104 14 98 0.0 0.0 0.00 0.00 0.00 53 999.9
20260504004602 15 98 0.0 0.0 0.00 0.00 0.00 52 999.7
20260504004059 15 98 0.0 0.0 0.00 0.00 0.00 49 999.7
20260504003555 16 98 0.0 0.0 0.00 0.00 0.00 48 999.7
20260504003052 16 98 0.0 0.0 0.00 0.00 0.00 47 999.7
20260504002549 16 98 0.0 0.0 0.00 0.00 0.00 50 999.5